#timestamp,LO_Frequency,Hit,StdDev 
1459425615.7,286047003.0,N
1459425635.6,286047004.7,N
1459425655.4,286047004.8,N
1459425675.2,286047005.8,N
1459425695.0,286047004.6,N
1459425696.0,286047004.6,N
1459425715.8,286047006.8,N
1459425735.6,286047007.5,N
1459425755.4,286047006.6,N
1459425775.3,286047005.3,N
1459425795.1,286047003.6,N
1459425815.8,286047005.3,N
1459425835.7,286047004.8,N
1459425855.5,286047004.5,N
1459425875.3,286047005.1,N
1459425895.2,286047004.6,N
1459425915.9,286047005.6,N
1459425935.7,286047005.6,N
1459425955.6,286047007.1,N
1459425975.4,286047008.4,N
1459425995.2,286047009.1,Y
1459426015.1,286047007.0,P
1459426016.0,286047007.0,P
1459426035.8,286047006.8,P
1459426055.6,286047005.1,Y
1459426075.5,286047001.0,P
1459426095.3,286046999.3,N
1459426115.1,286046995.1,N
1459426135.9,286046997.2,N
1459426155.7,286046995.8,N
1459426175.5,286046996.9,N
1459426195.4,286046998.7,N
1459426215.2,286046999.2,N
1459426235.0,286046995.8,N
1459426235.9,286046995.8,N
1459426255.7,286046994.9,N
1459426275.6,286046997.4,N
1459426295.4,286046998.3,N
1459426315.2,286046999.2,N
1459426335.1,286047001.2,N
1459426336.0,286047001.2,N
1459426355.8,286047000.7,N
1459426375.6,286047002.0,N
1459426395.5,286047000.8,N
1459426415.3,286047001.2,N
1459426435.1,286046999.1,N
1459426455.9,286046995.6,N
1459426475.7,286046992.1,N
1459426495.5,286046993.0,N
1459426515.4,286046994.2,N
1459426535.2,286046992.3,N
1459426555.0,286046994.4,N
1459426555.9,286046994.4,N
1459426575.7,286046997.9,N
1459426595.6,286046997.3,N
1459426615.4,286046995.7,N
1459426635.2,286046999.1,N
1459426655.1,286046998.1,N
1459426656.0,286046998.1,N
1459426675.8,286046998.4,N
1459426695.6,286046997.0,N
1459426715.5,286046999.5,N
1459426735.3,286046993.5,N
1459426755.1,286046994.3,N
1459426775.9,286046990.1,Y
1459426795.7,286046997.6,P
1459426815.5,286046996.8,P
1459426835.4,286046996.9,P
1459426855.2,286046997.7,Y
1459426875.0,286047000.2,P
1459426875.9,286047000.2,N
1459426895.8,286046998.2,N
1459426915.6,286047001.0,N
1459426935.4,286047002.6,N
1459426955.3,286047002.2,N
1459426975.1,286047002.7,N
1459426976.0,286047002.7,N
1459426995.8,286047001.2,N
1459427015.7,286047000.8,N
1459427035.5,286047000.3,N
1459427055.3,286046999.3,N
1459427075.2,286046995.0,Y
1459427095.9,286046994.8,P
1459427115.7,286046993.7,N
1459427135.6,286046993.5,N
1459427155.4,286046999.6,N
1459427175.2,286046999.1,N
1459427195.0,286047000.7,N
1459427195.9,286047000.7,N
1459427215.8,286047001.0,N
1459427235.6,286047002.3,N
1459427255.4,286047001.3,N
1459427275.3,286047002.0,N
1459427295.1,286047003.6,N
1459427296.0,286047003.6,N
1459427315.8,286047001.5,N
1459427335.7,286047002.4,N
1459427355.5,286047001.3,N
1459427375.3,286047004.1,N
1459427395.2,286046999.8,N
1459427415.9,286047001.3,N
1459427435.7,286047004.0,N
1459427455.5,286047000.1,N
1459427475.4,286046999.8,N
1459427495.2,286047004.0,N
1459427515.0,286047003.4,N
1459427515.9,286047003.4,N
1459427535.8,286047002.8,N
1459427555.6,286047002.7,N
1459427575.4,286047000.2,N
1459427595.3,286047001.5,N
1459427615.1,286047001.6,N
1459427616.0,286047001.6,N
1459427635.8,286047006.0,N
1459427655.7,286047003.9,N
1459427675.5,286047003.2,N
1459427695.3,286047003.4,N
1459427715.2,286047001.0,N
1459427735.9,286047000.7,N
1459427755.7,286046999.1,N
1459427775.6,286047000.9,N
1459427795.4,286046996.5,N
1459427815.2,286046997.7,N
1459427835.1,286046993.7,Y
1459427836.0,286046993.7,P
1459427855.8,286046991.9,N
1459427875.6,286046990.6,N
1459427895.5,286046991.4,N
1459427915.3,286046988.7,N
1459427935.1,286046989.2,N
1459427955.8,286046991.1,N
1459427975.7,286046987.3,Y
1459427995.5,286046993.4,P
1459428015.3,286046998.0,P
1459428035.2,286046996.2,N
1459428055.0,286046996.5,N
1459428055.9,286046996.5,N
1459428075.7,286046995.2,N
1459428095.6,286046996.1,N
1459428115.4,286046999.3,N
1459428135.2,286047005.4,N
1459428155.1,286047007.1,N
1459428156.0,286047007.1,N
1459428175.8,286047004.7,N
1459428195.6,286047005.7,N
1459428215.5,286047007.3,N
1459428235.3,286047007.4,N
1459428255.1,286047005.5,N
1459428275.9,286047002.7,N
1459428295.7,286046999.0,N
1459428315.5,286046997.5,N
1459428335.3,286047001.1,N
1459428355.2,286047007.5,N
1459428375.0,286047007.6,N
1459428375.9,286047007.6,N
1459428395.7,286047006.9,N
1459428415.6,286047006.3,N
1459428435.4,286047005.6,N
1459428455.2,286047005.3,N
1459428475.1,286047003.5,N
1459428476.0,286047003.5,N
1459428495.8,286047004.3,N
1459428515.6,286047003.8,N
1459428535.5,286047001.6,N
1459428555.3,286047001.9,N
1459428575.1,286047000.3,N
1459428595.9,286046999.7,N
1459428615.7,286047000.2,N
1459428635.5,286047001.1,N
1459428655.4,286046999.1,N
1459428675.2,286046996.6,N
1459428695.0,286046998.7,N
1459428695.9,286046998.7,N
1459428715.8,286046999.6,N
1459428735.6,286046999.9,N
1459428755.4,286046997.7,N
1459428775.2,286046995.2,N
1459428795.1,286046995.2,N
1459428796.0,286046995.2,N
1459428815.8,286046996.7,N
1459428835.6,286046998.2,N
1459428855.5,286047003.7,N
1459428875.3,286047005.7,N
1459428895.1,286047003.8,N
1459428915.9,286047005.4,N
1459428935.7,286047003.7,N
1459428955.5,286047003.1,N
1459428975.4,286047001.7,N
1459428995.2,286046998.5,N
1459429015.0,286046998.9,N
1459429015.9,286046998.9,N
1459429035.8,286046998.6,N
1459429055.6,286046998.9,N
1459429075.4,286046997.0,N
1459429095.3,286046999.6,N
1459429115.1,286047000.9,N
1459429116.0,286047000.9,N
1459429135.8,286047000.1,N
1459429155.6,286047005.8,N
1459429175.5,286047006.8,N
1459429195.3,286047004.8,N
